Location: Unspecified
(0.0000°N, 0.0000°E)
Time: 05:45:56
(UTC+00:00)

A-11 Canister half - Visible Passes

Search period start: 06 December 2016 00:00
Search period end: 16 December 2016 00:00
Orbit: 1514 x 1685 km, 47.2° (Epoch: 05 December)

Date Brightness Start Highest point End Pass type
(mag) Time Alt. Az. Time Alt. Az. Time Alt. Az.
06 Dec 9.0 19:21:00 10° SSW 19:30:19 70° SE 19:34:38 37° ENE visible
06 Dec 10.6 21:28:00 10° W 21:32:52 22° WNW 21:32:52 22° WNW visible
07 Dec 9.1 18:58:11 10° SSW 19:07:24 64° SE 19:13:28 25° NE visible
07 Dec 10.3 21:04:44 10° W 21:11:42 27° NW 21:11:42 27° NW visible
08 Dec 9.2 18:35:23 10° SSW 18:44:31 59° SE 18:52:18 16° NE visible
08 Dec 10.1 20:41:31 10° WSW 20:49:21 29° NW 20:50:33 28° NW visible
09 Dec 10.7 05:23:08 10° N 05:31:05 26° NE 05:38:51 10° E visible
09 Dec 9.3 18:12:36 10° SSW 18:21:37 54° SE 18:30:52 10° NE visible
09 Dec 10.1 20:18:21 10° WSW 20:26:24 32° NW 20:29:24 27° NNW visible
10 Dec 10.8 05:00:29 10° N 05:08:06 24° NE 05:15:33 10° E visible
10 Dec 10.0 19:55:12 10° WSW 20:03:27 35° NW 20:08:16 23° N visible
11 Dec 10.8 04:37:54 10° N 04:45:06 22° NE 04:52:12 10° E visible
11 Dec 10.0 19:32:06 10° WSW 19:40:32 38° NW 19:47:07 17° N visible
12 Dec 10.9 04:15:21 10° N 04:22:06 20° NE 04:28:46 10° E visible
12 Dec 9.9 19:09:00 10° WSW 19:17:37 42° NW 19:25:58 12° NNE visible
13 Dec 10.9 03:52:51 10° N 03:59:06 18° NE 04:05:16 10° E visible
13 Dec 9.8 18:45:57 10° WSW 18:54:42 45° NW 19:03:43 10° NNE visible
14 Dec 11.0 03:30:26 10° N 03:36:05 16° NE 03:41:40 10° E visible
14 Dec 9.7 18:22:55 10° WSW 18:31:47 49° NW 18:40:55 10° NNE visible
15 Dec 11.0 03:08:50 11° NNE 03:13:04 14° NE 03:17:57 10° ENE visible
15 Dec 9.3 05:08:24 10° NW 05:18:32 75° NE 05:28:26 10° SE visible
